User: anonymous   Login
Location: Unspecified
(0.0000°N, 0.0000°E)
Time: 07:01:05
(UTC+00:00)
Language:

NOAA 15 - Orbit

View from above orbital plane
View from above orbital plane
View from above satellite
View from above satellite

Ground track
Ground track

The orbit data is extracted from the following two-line orbital elements,

1 25338U 98030A   19078.54551352  .00000034  00000-0  33013-4 0  9997
2 25338  98.7550  99.9394 0011186 143.5372 216.6572 14.25898491 84262
Epoch (UTC): 19 March 2019 13:05:32
Eccentricity: 0.0011186
inclination: 98.7550°
perigee height: 797 km
apogee height: 813 km
right ascension of ascending node: 99.9394°
argument of perigee: 143.5372°
revolutions per day: 14.25898491
mean anomaly at epoch: 216.6572°
orbit number at epoch: 8426

The dashed part of the orbit path shows where the satellite is in the earth's shadow,  

DLR